Location: Unspecified
(0.0000°N, 0.0000°E)
Time: 18:18:00
(UTC+00:00)

STARLINK 1009 - Pass Details

Date: 19 January 2020
Orbit: 348 x 352 km, 53.0° (Epoch: 17 January)

Event Time Altitude Azimuth Distance (km) Brightness Sun altitude
Exits shadow 04:45:12 30° 38° (NE) 645 4.1 -19.9°
Drops below altitude 10° 04:46:49 10° 36° (NE) 1,294 5.7 -19.5°
Sets 04:48:49 0° 35° (NE) 2,131 6.8 -19.1°
